SCP
0 0 0 0 0 0 0 0 0 0 0 0 0 0 0 0 0 0 0 0 0 0 0 0 0 0 0 0 0 0 0 0 0 0 0 0 0 0 0 0 0 0 0
0 0 0 0 0 0 0 0 0 0 0 0 0 0 0 0 0 0 0 0 0 0 0 0 0 0 0 0 0 0 0 0 0 0 0 0 0 0 0 0 0 0 0
0 0 0 0 0 0 0 0 0 0 0 0 0 0 0 0 0 0 0 0 0 0 0 0 0 0 0 0 0 0 0 0 0 0 0 0 0 0 0 0 0 0 0
0 0 0 0 0 0 0 0 0 0 0 0 0 0 0 0 0 0 0 0 0 0 0 0 0 0 0 0 0 0 0 0 0 0 0 0 0 0 0 0 0 0 0
0 0 0 0 0 0 0 0 0 0 0 0 0 0 0 0 0 0 0 0 0 0 0 0 0 0 0 0 0 0 0 0 0 0 0 0 0 0 0 0 0 0 0
0 0 0 0 0 0 0 0 0 0 0 0 0 0 0 0 0 0 0 0 0 0 0 0 0 0 0 0 0 0 0 0 0 0 0 0 0 0 0 0 0 0 0
0 0 0 0 0 0 0 0 0 0 0 0 0 0 0 0 0 0 0 0 0 0 0 0 0 0 0 0 0 0 0 0 0 0 0 0 0 0 0 0 0 0 0
0 0 0 0 0 0 0 0 0 0 0 0 0 0 0 0 0 0 0 0 0 0 0 0 0 0 0 0 0 0 0 0 0 0 0 0 0 0 0 0 0 0 0
0 0 0 0 0 0 0 0 0 0 0 0 0 0 0 0 0 0 0 0 0 0 0 0 0 0 0 0 0 0 0 0 0 0 0 0 0 0 0 0 0 0 0
0 0 0 0 0 0 0 0 0 0 0 0 0 0 0 0 0 0 0 0 0 0 0 0 0 0 0 0 0 0 0 0 0 0 0 0 0 0 0 0 0 0 0
0 0 0 0 0 0 0 0 0 0 0 0 0 0 0 0 0 0 0 0 0 0 0 0 0 0 0 0 0 0 0 0 0 0 0 0 0 0 0 0 0 0 0
0 0 0 0 0 0 0 0 0 0 0 0 0 0 0 0 0 0 0 0 0 0 0 0 0 0 0 0 0 0 0 0 0 0 0 0 0 0 0 0 0 0 0
0 0 0 0 0 0 0 0 0 0 0 0 0 0 0 0 0 0 0 0 0 0 0 0 0 0 0 0 0 0 0 0 0 0 0 0 0 0 0 0 0 0 0
0 0 0 0 0 0 0 0 0 0 0 0 0 0 0 0 0 0 0 0 0 0 0 0 0 0 0 0 0 0 0 0 0 0 0 0 0 0 0 0 0 0 0
0 0 0 0 0 0 0 0 0 0 0 0 0 0 0 0 0 0 0 0 0 0 0 0 0 0 0 0 0 0 0 0 0 0 0 0 0 0 0 0 0 0 0
0 0 0 0 0 0 0 0 0 0 0 0 0 0 0 0 0 0 0 0 0 0 0 0 0 0 0 0 0 0 0 0 0 0 0 0 0 0 0 0 0 0 0
0 0 0 0 0 0 0 0 0 0 0 0 0 0 0 0 0 0 0 0 0 0 0 0 0 0 0 0 0 0 0 0 0 0 0 0 0 0 0 0 0 0 0
0 0 0 0 0 0 0 0 0 0 0 0 0 0 0 0 0 0 0 0 0 0 0 0 0 0 0 0 0 0 0 0 0 0 0 0 0 0 0 0 0 0 0
0 0 0 0 0 0 0 0 0 0 0 0 0 0 0 0 0 0 0 0 0 0 0 0 0 0 0 0 0 0 0 0 0 0 0 0 0 0 0 0 0 0 0
0 0 0 0 0 0 0 0 0 0 0 0 0 0 0 0 0 0 0 0 0 0 0 0 0 0 0 0 0 0 0 0 0 0 0 0 0 0 0 0 0 0 0
0 0 0 0 0 0 0 0 0 0 0 0 0 0 0 0 0 0 0 0 0 0 0 0 0 0 0 0 0 0 0 0 0 0 0 0 0 0 0 0 0 0 0
0 0 0 0 0 0 0 0 0 0 0 0 0 0 0 0 0 0 0 0 0 0 0 0 0 0 0 0 0 0 0 0 0 0 0 0 0 0 0 0 0 0 0
0 0 0 0 0 0 0 0 0 0 0 0 0 0 0 0 0 0 0 0 0 0 0 0 0 0 0 0 0 0 0 0 0 0 0 0 0 0 0 0 0 0 0
0 0 0 0 0 0 0 0 0 0 0 0 0 0 0 0 0 0 0 0 0 0 0 0 0 0 0 0 0 0 0 0 0 0 0 0 0 0 0 0 0 0 0
0 0 0 0 0 0 0 0 0 0 0 0 0 0 0 0 0 0 0 0 0 0 0 0 0 0 0 0 0 0 0 0 0 0 0 0 0 0 0 0 0 0 0
0 0 0 0 0 0 0 0 0 0 0 0 0 0 0 0 0 0 0 0 0 0 0 0 0 0 0 0 0 0 0 0 0 0 0 0 0 0 0 0 0 0 0
Wind_Speed
1 2 4 5 7 7 8 9 9 9 9 10 10 10 11 11 11 11 11 11 11 12 12 12 12 12 12 12 12 12 12 12 12 12 12 12 12 13 13 13 11 8 13
3 3 5 6 7 7 9 9 9 9 9 9 10 10 10 11 11 11 11 11 11 11 11 12 12 11 11 11 12 11 12 12 12 12 11 10 10 12 13 13 12 9 13
3 4 5 6 7 8 9 9 9 8 8 9 9 9 10 10 10 10 10 10 10 11 11 11 11 11 11 11 11 11 11 11 12 11 9 5 6 11 13 13 12 13 13
4 4 4 7 8 8 8 9 9 8 8 8 8 9 9 9 9 9 10 10 10 10 11 11 10 10 11 10 10 11 11 11 11 9 5 5 5 11 12 12 12 13 13
5 4 4 7 8 8 8 9 9 8 8 7 8 8 9 9 9 9 9 9 9 10 10 10 10 10 10 10 11 11 11 11 10 7 5 4 4 10 12 12 12 12 12
5 4 4 7 8 8 8 8 8 8 8 7 7 8 8 8 8 8 8 9 9 9 9 9 9 9 9 10 10 10 10 10 8 5 4 4 3 9 11 11 11 11 11
5 4 4 8 8 8 8 8 8 7 7 7 7 7 7 7 7 7 8 8 8 8 8 8 9 9 9 9 9 9 9 8 6 4 4 3 4 9 9 9 9 10 10
5 4 4 7 8 8 8 8 7 7 7 6 6 6 7 7 7 7 7 7 7 8 7 8 8 8 8 8 9 9 9 7 6 4 3 3 5 8 8 8 8 8 9
5 5 4 4 5 6 7 7 7 7 6 6 6 6 6 6 6 7 6 6 7 7 7 7 7 7 7 7 8 8 8 7 4 2 3 2 5 7 7 7 7 7 7
5 5 5 5 4 4 3 6 7 7 6 6 6 6 7 6 6 6 5 5 5 5 6 6 6 6 6 6 7 7 7 5 3 2 1 2 5 6 6 6 6 6 6
5 4 4 4 4 3 3 4 5 5 5 5 5 6 5 3 2 3 4 5 5 5 5 6 6 6 6 6 6 6 5 2 2 2 1 3 4 5 6 5 5 5 5
3 3 3 3 3 3 3 3 2 3 3 3 2 3 2 2 2 3 4 5 4 4 5 5 6 5 4 3 4 4 2 2 2 1 2 4 4 5 6 5 5 5 5
3 2 2 2 2 3 2 2 2 2 2 2 3 2 2 2 2 2 2 2 2 3 2 3 3 2 2 2 2 2 2 2 1 1 2 3 4 5 6 5 5 5 5
3 2 2 2 2 2 2 2 1 1 1 2 2 2 2 1 1 1 1 1 1 1 1 1 1 2 2 2 1 2 2 1 1 1 2 4 4 4 5 5 5 6 6
3 2 2 2 2 2 2 1 2 1 1 1 2 2 2 1 1 1 1 1 1 1 1 1 1 1 1 1 1 2 1 1 1 1 1 4 5 5 4 5 5 6 6
3 2 2 2 1 1 1 1 1 1 1 1 1 1 2 1 1 1 1 1 1 1 1 1 1 1 1 1 1 1 1 1 1 1 1 2 4 4 4 4 4 5 6
3 3 2 2 2 1 1 1 1 1 1 1 1 1 2 2 1 1 1 0 0 0 1 1 1 1 1 1 1 1 1 1 1 1 1 1 1 3 4 4 3 5 6
3 3 2 2 2 2 1 1 1 1 1 1 1 1 2 2 2 1 1 0 1 0 1 1 1 1 1 1 1 1 1 1 1 1 1 1 1 1 2 4 4 4 5
4 3 2 2 2 2 1 1 1 1 1 1 1 1 1 1 1 1 1 0 0 1 1 1 1 1 1 1 0 1 1 0 0 1 1 1 1 1 1 2 4 4 4
4 3 3 2 2 2 2 2 1 1 1 1 0 0 1 1 1 1 1 1 1 1 1 1 1 1 1 1 1 1 2 1 1 1 1 1 1 1 1 1 1 2 3
3 3 3 2 2 2 1 1 1 1 0 0 0 0 0 1 1 1 1 0 1 0 1 2 1 1 1 1 1 1 2 2 1 1 0 1 1 1 1 1 1 1 1
4 3 3 3 2 2 2 1 1 1 1 0 0 1 0 0 0 1 0 1 0 1 0 1 2 1 1 1 2 2 0 2 2 1 0 0 0 1 1 1 1 1 1
4 4 3 3 3 2 2 1 1 1 1 0 1 1 1 1 0 0 0 1 1 1 1 1 2 2 2 1 1 2 2 2 1 2 1 1 0 0 0 1 1 1 1
3 3 2 2 2 2 3 2 3 2 1 2 1 1 1 1 1 1 1 1 1 1 1 1 1 2 3 2 1 0 1 2 2 1 1 2 1 0 1 0 0 0 0
3 3 2 2 2 2 3 3 3 1 1 1 1 1 1 1 1 1 1 1 1 1 1 1 1 1 2 3 2 1 0 0 1 2 1 1 2 1 1 1 1 1 0
1 2 2 2 2 2 2 3 3 3 2 1 1 2 2 1 1 1 1 1 1 1 2 2 2 2 1 2 2 2 2 2 1 1 2 1 1 2 1 1 1 1 1
Wind_Direction
203 196 146 125 114 104 101 99 94 90 86 85 85 84 82 79 77 75 73 71 68 67 67 64 64 65 67 68 66 64 66 69 74 77 76 77 81 83 83 81 78 74 77
174 172 143 126 115 106 102 99 97 93 89 87 87 86 83 80 79 76 74 72 72 70 69 67 64 63 64 64 63 63 67 70 76 77 74 72 77 84 85 82 79 80 80
125 139 138 121 114 109 104 99 96 94 92 90 90 89 86 83 82 79 76 74 73 73 72 69 64 61 59 59 63 65 68 73 79 77 71 66 77 84 85 82 80 81 81
110 119 124 117 115 110 106 103 97 94 94 94 91 89 88 86 83 81 78 76 74 74 73 70 65 59 56 58 62 64 66 74 78 73 66 61 73 86 86 83 81 81 80
94 92 102 109 114 111 108 105 102 96 94 93 91 89 88 86 84 82 80 76 74 74 72 70 66 60 58 60 62 63 66 74 76 67 61 58 69 87 88 86 84 83 81
89 80 88 96 103 104 106 107 104 99 94 91 92 92 90 87 83 82 82 77 74 74 73 70 67 62 58 58 60 63 65 68 68 59 56 56 72 90 92 90 88 85 84
94 82 91 88 92 91 92 97 103 101 97 92 92 95 91 87 84 84 84 81 77 76 77 73 69 64 60 55 57 60 63 60 64 60 54 55 77 91 94 94 94 91 89
101 84 82 89 88 87 85 82 89 97 94 90 88 88 90 88 84 87 89 84 80 78 76 74 71 67 62 58 56 55 62 62 64 63 58 58 82 91 97 98 99 97 93
91 84 69 74 82 83 81 77 72 76 85 86 83 79 80 82 82 85 90 89 82 79 77 74 72 69 63 58 55 53 55 56 62 57 67 63 83 94 97 95 100 99 97
78 74 71 65 61 60 71 76 71 66 70 80 79 76 71 72 76 76 79 88 85 80 78 74 69 67 64 59 54 53 48 43 48 58 53 69 90 102 101 99 101 102 99
71 62 62 67 62 56 57 65 63 64 63 72 77 73 70 61 62 62 67 75 81 79 78 74 69 66 60 55 51 47 39 38 46 49 60 72 101 111 109 105 102 103 103
93 75 66 62 62 61 64 59 48 44 44 48 61 69 66 62 53 58 55 60 62 62 64 66 65 61 54 39 40 41 37 35 49 38 47 70 100 112 112 109 106 106 108
139 100 75 73 67 65 65 66 52 44 38 39 49 63 75 67 54 51 50 42 43 53 51 50 54 43 39 36 37 43 41 42 35 18 32 60 82 109 117 116 111 110 108
122 110 80 79 75 66 72 81 72 59 46 40 32 46 77 78 64 59 58 39 40 37 45 41 55 45 39 36 50 63 49 50 45 26 25 51 67 88 111 117 117 117 110
139 129 110 87 84 78 83 88 84 74 61 48 41 41 55 83 101 94 84 58 40 31 44 49 64 63 50 39 50 66 55 53 46 40 32 48 59 69 92 112 112 113 112
159 156 144 117 104 97 99 104 118 97 88 71 46 40 48 60 96 117 101 68 32 23 22 36 54 93 79 69 58 48 48 60 55 57 55 47 51 58 67 92 106 110 108
174 165 158 148 124 120 112 117 113 114 110 92 55 50 53 48 56 97 120 122 311 9 60 56 44 64 65 61 54 36 37 48 66 63 53 51 47 48 57 66 85 107 106
159 162 172 156 138 129 122 132 121 120 108 98 69 54 56 53 51 63 96 170 202 149 113 107 80 81 63 61 41 4 1 25 57 59 60 57 64 51 46 55 58 89 107
162 163 168 159 147 135 117 103 109 112 104 98 84 70 67 63 48 63 66 8 169 144 135 141 101 119 112 62 26 7 352 10 17 47 56 60 74 73 58 51 53 54 77
156 160 164 149 136 125 115 93 83 82 84 90 94 82 95 92 71 57 73 29 29 122 141 136 127 97 138 148 79 21 351 342 19 61 40 25 47 83 74 62 55 30 50
149 155 161 150 145 131 135 142 155 196 205 52 3 2 93 93 102 77 50 110 47 107 172 152 141 136 143 134 103 37 349 340 2 11 31 35 27 42 87 78 69 53 24
168 172 169 166 166 164 164 175 190 189 214 216 304 314 350 69 108 104 101 215 159 72 103 159 135 154 196 161 141 136 315 322 330 334 345 147 36 29 65 81 96 82 43
180 187 182 182 178 171 143 110 78 60 34 7 303 282 285 254 229 168 173 244 202 156 164 201 175 169 183 221 191 157 165 213 277 318 329 330 127 107 40 37 83 68 56
192 181 178 184 179 174 152 148 149 161 202 240 244 252 269 249 238 218 181 244 204 190 196 205 203 201 175 191 223 287 210 160 169 248 316 338 351 160 188 97 75 25 32
183 175 180 172 174 177 168 169 170 180 216 260 259 241 251 261 239 235 215 204 223 205 206 211 209 229 195 189 188 185 161 7 146 169 221 295 333 308 268 223 217 252 266
178 174 178 176 178 169 165 177 184 191 207 230 250 238 250 265 256 263 244 219 230 224 211 211 213 211 219 205 185 182 177 188 192 177 196 231 271 285 289 252 226 238 247